FENGYUN 1C DEB, 37017

Orbit data source: Space-Track

FENGYUN 1C DEB, 37017 is space debris in SSO originally from a launch on Mon, 10 May 1999 UTC launched from the Taiyaun Space Center, China (TSC). Fengyun 1C debris stems from the Chinese weather satellite Fengyun-1C, which was intentionally destroyed by a Chinese anti-satellite missile in 2007. This event dramatically increased the amount of space debris, with thousands of trackable fragments posing hazards to satellites and human spaceflight. The Fengyun 1C debris cloud has become a focal point in discussions about space sustainability and the need for international regulations to prevent the creation of new debris.

Loading next visibility...
Identifier
37017, 1999-025ECZ
Orbit
SSO
Country
Flag of CNCN / PRC
Related business
Manufacturer
Unknown
Mission
Spacecraft
Bus & Motor
Unknown
Mass
Unknown
Launch date (UTC)
1999-05-10 (27 years ago)
Launch vehicle
Unknown
Launch site
Taiyaun Space Center, China (TSC)
Object type
Payload
Rocket body
Debris
Shape & HBR
Unknown shape, 0.1 m
Radar Cross Section
Small (<0.1 m²)

Expand to show TLE details & history
Last TLE update: 1 day ago

TLE from 1 day ago
0 FENGYUN 1C DEB
1 37017U 99025ECZ 26207.15521391  .00007252  00000-0  13710-2 0  9997
2 37017  98.8102 164.0537 0275384  52.6575 309.9362 14.43146172644103
Epoch: 2026-07-26T03:43Z
TLE epoch observation values (Epoch: 2026-07-26T03:43:30.481Z)
Latitude
-0.00006°
Longitude
164.3195°
Altitude
628.327 km
Speed
7.609 km/s
True Right ascension
10h 56m 12s
True Declination
0° 00' 00"
Sunlit
Object was in daylight at epoch
Visualization orbit readout
Latitude
Unknown
Longitude
Unknown
Altitude
Unknown
Speed
Unknown
Apparent Right ascension
Unknown
Apparent Declination
Unknown
Sunlit
N/A
Visualization observer readout
Local Sidereal Time
22:26:08
Azimuth
Unknown
Elevation
Unknown
Doppler factor
Unknown
Orbital elements
Apogee altitude
941.418 km
Perigee altitude
549.085 km
Semi-major axis
7,123.389 km
Eccentricity
0.02754
Inclination
98.8102°
RAAN
164.0537°
Arg. of periapsis
52.6575°
True anomaly
307.46271°
Mean anomaly
309.9362°
Eccentric anomaly
308.70489°
Mean motion
3.61005 °/min
Orbital period
99.72 mins
BSTAR
0.001371
Loading maneuver chart data...
Computing Atmospheric mass density...

Documentation

Showing up to 5 results
|